TJS-1

Last updated on Jan. 29, 2020, 4:37 a.m. UTC

1 40892U 15046A   20028.88919425 -.00000158  00000-0  10000-3 0  9996
2 40892   0.0443 130.1959 0006507 238.6590 233.8472  1.00270138 16171
UTC
Height (km)
Latitude
Longitude
Inclination
Orbital Period
UTC large
Height (km)
Speed (km/s)
/
Latitude / Longitude
Inclination (degrees)
Orbital Period (minutes)
Azimuth
Elevation
Range (km)
Doppler Factor
iOS Compass Heading
iOS Angle

Next 30 passes for location: Hong Kong

Rise time Rise Azimuth (degrees) Set time Set Azimuth (degrees) Duration Max altitude (degrees)

No matching passes for this satellites